Volver al catálogo

DELTA 1 DEB

ActivoSSO
NORAD 12533·DEBRIS·🇺🇸 United States

Lanzado Jul 29, 1976 desde Vandenberg Space Force Base

Loading…

Próximos Pases (próximas 24 horas)

TLE

ActualizadoSource: Space-Track

Época: Sep 14, 2026, 08:21 UTC

1 12533U 76077DN  26257.34847729  .00000547  00000-0  39882-2 0  9995
2 12533 101.7427 221.5586 0052658 105.1747  54.0776 12.47551346167403

Sigue DELTA 1 DEB en tiempo real con AllMySat

Download on the App Store